Simultaneous Nadir Overpasses (SNOs) Predictions

Prediction of SNOs between NPP and TERRA Satellite Orbit:

Table of predicted SNOs for the next 14.0 days since TLE Epoch: 6/8/2013
Index Date (NPP) Time (NPP) Lat,Lon (NPP) SZA (NPP ) Date (TERRA) Time (TERRA) Lat,Lon (TERRA) SZA (TERRA ) Distance(km) Time Diff (sec)
1 06/08/2013 19:12:43 -68.28, 70.30 134.74 06/08/2013 19:13:34 -68.27, 70.24 134.75 2.97 51
2 06/08/2013 20:03:27 68.14,-122.22 45.12 06/08/2013 20:03:01 68.16,-122.25 45.14 2.19 26
3 06/08/2013 20:53:53 -67.21, 46.24 135.82 06/08/2013 20:52:45 -67.27, 44.37 135.75 80.72 68
4 06/11/2013 10:39:13 69.27, 17.42 46.08 06/11/2013 10:40:20 69.14, 19.56 45.92 85.69 67
5 06/11/2013 11:29:37 -68.23,-173.86 134.99 06/11/2013 11:30:04 -68.25,-173.91 134.97 3.07 27
6 06/11/2013 12:20:22 68.15, -6.45 44.93 06/11/2013 12:19:31 68.14, -6.40 44.92 2.55 51
7 06/14/2013 02:55:52 68.42, 134.35 45.06 06/14/2013 02:57:03 68.38, 134.49 45.00 7.61 71
8 06/14/2013 03:46:32 -68.24, -58.08 135.14 06/14/2013 03:46:34 -68.22, -58.07 135.16 2.01 2
9 06/14/2013 04:37:15 68.05, 109.46 44.68 06/14/2013 04:36:02 68.05, 109.37 44.67 3.62 73
10 06/16/2013 19:12:45 68.33,-109.74 44.86 06/16/2013 19:13:33 68.32,-109.70 44.85 1.97 48
11 06/16/2013 20:03:26 -68.19, 57.75 135.29 06/16/2013 20:03:04 -68.17, 57.75 135.31 2.12 22
12 06/16/2013 20:53:53 67.15,-133.66 43.66 06/16/2013 20:52:46 67.21,-135.70 43.75 88.03 67
13 06/19/2013 10:39:12 -69.37,-162.68 134.13 06/19/2013 10:40:19 -69.27,-160.28 134.27 95.07 67
14 06/19/2013 11:29:37 68.24, 6.16 44.71 06/19/2013 11:30:02 68.26, 6.10 44.73 3.16 25
15 06/19/2013 12:20:19 -68.15, 173.59 135.39 06/19/2013 12:19:32 -68.16, 173.62 135.37 2.34 47
16 06/22/2013 02:55:51 -68.53, -45.75 135.00 06/22/2013 02:57:02 -68.47, -45.41 135.07 15.46 71
17 06/22/2013 03:46:32 68.25, 121.91 44.72 06/22/2013 03:46:31 68.23, 121.95 44.70 3.08 1




NCC Satellite Simultaneous Nadir Overpasses (SNOs) Prediction Service
